Location: Gwatt
(46.7204°N, 7.6223°E)
Time: 08:20:13
(UTC+00:00)

Vanguard 2 - Pass Details

Date: 21 January 2021
Orbit: 552 x 2938 km, 32.9° (Epoch: 24 February)

Event Time Altitude Azimuth Distance (km) Brightness Sun altitude
Rises 17:56:23 0° 232° (SW) 2,854 11.6 -16.8°
Reaches altitude 10° 17:58:59 10° 213° (SSW) 2,109 10.4 -17.2°
Maximum altitude 18:02:22 19° 168° (SSE) 1,834 9.4 -17.8°
Enters shadow 18:05:40 13° 131° (SE) 2,489 9.8 -18.4°
Drops below altitude 10° 18:06:41 10° 125° (SE) 2,797 - -18.5°
Sets 18:10:52 0° 109° (ESE) 4,200 - -19.2°
